TIANTONG-1 1 (41725 NORAD) Tracking and Keplerian Element Data

This shows tracking and keplerian element data for the satellite.

Feedback or suggestion? Click here.




ElementValue
Catalog41725
NameTIANTONG-1 1
Epoch Orbit1757
Epoch Day130.89633777
Epoch Year2021
RAAN342.4418
Inclination2.5815
Eccentricity0.0004956
Argument of Perigee70.5708
Mean Anonmoly239.9544
Mean Motion1.00275355
Decay Rate-3.17E-06
L11 41725U 16048A 21130.89633777 -.00000317 00000-0 00000-0 0 9997
L22 41725 2.5815 342.4418 0004956 70.5708 239.9544 1.00275355 17573

Live tracking and technical data element details for TIANTONG-1 1 (NORAD 41725). TIANTONG-1 1 can be tracked NOW for your location showing map with azimuth and elevation plus other details from your city location.

Track the satellite on the map from your city or location and see movement details for azimuth, elevation, latitude, longitude, range, height, and movement on the map or in text.







IsCatalogInMostPopularTable: catalog: 41725, numindb: 828
Update: records affected: 1



GetName: 41725 TIANTONG-1 1

Hit Count: updated at: Tue, 11 May 2021 19:23:32 GMT